Vertical_Velocity
1 1 -4 -1 2 1 -2 -1 -1 -3 -4 -1 8 1 -0 1 5 9 -15 3 11 1 -3 -3 1 -4 -6 6 -0 0 2 6 4 5 2 -2 1 -4 0 -4 -5 -7 -4 -1 3 4 -7 1 -1 -8 -11 -1 -1 -2
3 -0 2 1 -1 4 1 1 4 2 4 6 5 -2 -2 -2 3 10 4 4 2 20 -20 -3 1 4 -3 -7 -2 2 -2 -3 -7 3 1 0 2 2 -2 -2 -1 -3 -9 -8 -7 -13 -2 -2 -1 -1 -0 -3 -4 -1
4 -0 -3 -2 -1 1 2 1 2 7 -5 -13 7 -3 -2 4 2 3 6 5 12 6 -8 2 -10 -1 1 -2 27 2 2 1 1 1 -5 -1 1 -2 -1 -2 -0 -1 -1 -0 0 -5 -4 -2 -2 -1 -0 -0 -1 -0
2 1 1 -0 0 -0 4 1 1 3 -0 1 1 -3 -1 -3 1 6 2 5 12 7 4 -12 -1 -1 -6 -0 4 14 4 13 1 2 2 -1 0 -1 -1 -4 -1 -7 -0 -3 -4 -2 -1 -3 -5 -3 0 -1 -0 -0
5 4 3 3 3 0 -0 -0 -1 0 1 3 1 1 3 4 4 11 -1 -5 2 16 -1 -2 -1 -6 2 -0 -1 2 9 9 8 4 1 -1 0 -0 1 -2 -0 -5 -9 -4 -10 -5 -4 -6 -4 1 -1 -4 1 1
-2 -1 -3 -5 -4 -1 -0 2 -0 1 -2 0 5 3 -0 -0 9 12 -10 -8 -0 1 7 -0 -1 2 -0 -1 -0 7 10 -1 6 -0 -2 1 -0 1 0 -1 -10 -3 -1 0 -13 0 2 2 -0 1 -1 -2 3 1
1 -0 -0 -1 0 2 2 4 4 2 1 -1 -0 0 -1 3 12 -8 -14 -1 2 38 4 -2 -3 -1 3 9 13 -0 1 -1 2 -1 2 -1 -1 1 0 -0 -2 -4 -1 3 2 2 1 -1 -2 -1 -1 3 1 4
7 5 5 7 8 5 3 1 1 0 -1 0 0 -1 0 5 17 1 -6 0 -3 12 -1 1 -4 -2 -0 -2 0 7 2 1 2 1 1 -1 1 1 -0 -5 -2 1 1 2 2 2 2 -0 1 -1 -1 1 2 2
-1 -2 -4 -5 -5 -5 -3 -0 0 1 2 2 3 7 16 27 5 -7 -6 -3 -5 14 1 -0 -1 -2 -3 0 2 -2 1 -1 -1 -0 -0 1 0 -3 -4 -1 -1 -0 -2 0 1 3 1 1 0 -0 1 2 2 0
-2 -1 -0 -1 -3 -9 -8 -6 -1 0 0 12 50 23 13 4 3 -4 -3 2 14 10 2 -1 3 -1 0 -2 -1 -1 -0 -0 -1 -3 1 0 -4 1 3 3 2 0 3 1 -2 0 -1 -1 -1 -0 1 2 4 1
-2 -3 -2 -4 9 15 -3 4 4 13 45 41 10 -3 -0 7 -2 -2 0 2 1 1 1 -0 -0 -3 1 -3 -2 -1 -2 -1 -1 -7 -2 -1 -3 -2 -1 -1 -0 -0 -1 1 1 3 4 4 -1 -2 -1 1 2 2
-3 -2 -1 -1 3 2 12 7 7 -3 -5 -10 -14 -8 8 -0 -1 -3 -1 0 2 -3 1 -2 -3 -1 1 1 -2 3 -1 -0 -2 -1 -3 -1 -6 0 1 0 -0 1 3 3 1 1 -0 -1 0 1 1 1 1 1
-2 0 1 2 0 -6 4 -1 4 4 3 -6 4 -3 0 1 -1 2 -1 -2 -0 -0 0 1 0 -2 -1 -0 -0 -1 1 0 -1 -1 -3 -5 -1 1 1 2 1 2 3 2 -1 -0 0 0 1 2 1 1 1 1
-3 -3 0 -1 -2 3 -8 -8 1 -2 2 -6 -3 -3 -5 1 -1 -1 -1 -1 0 1 1 0 -0 -1 1 -1 0 -2 2 -1 0 -1 -5 -2 1 -0 1 1 2 2 1 1 1 1 2 2 1 0 -0 -1 -2 -0
2 2 3 1 -3 -2 2 1 -7 -9 -7 -6 -2 -1 -1 -0 -0 0 1 0 1 6 -0 -1 -1 -3 0 -1 -0 -0 1 -1 -3 -5 -2 1 3 2 1 0 -1 -1 -1 -1 -1 -0 -0 -0 -1 -3 2 -1 -3 -2
1 2 -0 -3 -0 -1 -1 -1 -0 -1 -5 -4 -4 -2 1 -1 0 -0 1 1 2 0 0 -2 -0 -1 1 -1 -1 -1 -1 -3 -3 -1 1 2 0 0 -0 0 0 0 -0 -0 1 0 -1 -1 -1 -5 -2 -1 2 2
0 -2 -0 -0 -1 -2 -2 1 -1 -6 -2 -2 -1 2 0 0 1 1 2 1 1 -1 -1 -2 -2 -2 -2 -2 -1 -1 -2 -1 -1 -1 -0 0 -1 -2 1 -0 -0 -0 -1 1 0 1 -3 1 0 -2 -8 2 2 1
-3 -1 -1 -1 -0 1 -2 -4 -4 -3 -2 1 -3 1 -0 1 1 0 1 1 1 0 -0 -3 -4 -3 -1 -2 -2 -2 -1 -1 1 -0 -2 -1 0 1 1 -2 0 -0 -3 -3 -0 -2 -1 1 0 -3 -0 0 -2 -1
-2 -2 -2 0 1 1 -2 -2 -1 -4 1 0 1 1 0 1 1 1 0 1 1 -0 0 -1 -4 -1 -1 -1 -1 -1 -1 1 -4 -6 -6 -1 2 1 -1 -0 -0 -2 -1 -1 -1 -2 -2 -1 -3 -1 -2 -0 -5 0
-0 0 -0 -3 0 -2 -3 -2 -0 -2 -1 -0 -0 -1 -1 -0 -0 -0 1 0 -0 1 -5 -3 0 -0 -0 -1 2 1 0 2 3 -4 -7 -5 -0 -1 -0 0 -2 0 -1 -2 -2 1 -2 -4 -3 1 2 1 -2 -6
-1 -0 -3 0 -7 -5 -4 -0 -1 -0 -0 -1 -0 -0 0 0 -0 -1 -1 -0 -3 -0 -1 1 -0 1 2 2 3 0 -0 4 1 4 -3 -13 -2 -0 -5 -5 -2 -2 -2 -2 -2 -6 5 0 -1 2 -0 -2 1 0
-0 0 0 -2 -4 -1 -3 -1 -1 -0 0 -1 -0 0 -1 -2 -1 -1 0 -3 -0 -0 -1 -1 0 -1 -2 -2 -2 1 -0 -1 0 -1 5 6 -4 -2 -3 0 0 -3 -1 -2 0 -2 -4 -1 0 -1 -1 -3 3 -1
-0 -0 -2 -1 -2 -2 0 0 -0 -0 -4 -1 -0 -2 -1 -1 0 0 -2 0 0 1 2 1 -0 3 -0 1 2 5 5 1 -1 1 -0 1 1 1 -2 -2 4 1 -3 -6 3 -1 -4 2 -1 3 2 1 2 -2
-0 -5 -5 -4 -1 -1 0 -1 -0 -1 -0 -2 -1 -1 -2 -1 -1 -2 -1 0 0 2 0 0 -1 -6 -1 2 -1 -2 -1 -0 -2 -3 1 -2 -3 -5 3 -2 -0 1 3 1 1 0 0 -2 2 0 1 -0 -0 -1
-5 -5 -2 -3 1 -4 -3 -2 -2 -4 -0 -0 -1 -2 -2 -0 -2 -1 0 -3 -4 -3 -3 -2 -0 2 -0 -3 -2 -2 5 2 1 -3 1 6 1 -3 -4 0 -1 -0 4 2 -1 1 -1 0 -1 -0 0 1 -0 -0
-8 -1 -5 1 -1 -4 -0 -1 -0 -1 -0 -1 -1 -0 -0 -2 -3 -1 -0 -1 -2 -1 -0 0 -1 -6 -3 5 -3 -4 -4 3 1 -1 -5 3 4 6 1 1 -4 -10 7 6 4 -0 -0 1 1 1 -0 1 1 7
-3 -3 -0 1 1 1 -1 0 1 -2 -1 -1 -1 -1 -2 -2 -0 -1 -0 0 0 1 3 2 2 2 -0 -4 -0 2 2 3 7 5 1 2 3 4 6 3 -1 -1 0 1 3 3 1 0 0 1 1 0 0 -0
0 -0 -2 -1 -1 0 -2 -0 -0 -0 -0 1 1 -2 -1 -1 -0 -0 -1 0 1 1 2 2 2 2 0 1 3 -1 -2 0 3 1 4 4 4 3 2 2 2 4 4 3 1 1 0 0 0 1 0 2 1 0
-1 -0 0 -1 -0 -1 -0 -1 -1 1 0 -0 -1 -0 0 0 -0 0 -1 -0 1 -0 -2 -3 -1 1 3 5 5 3 4 -0 -5 -5 -3 -3 -5 -3 1 1 1 2 0 -0 1 2 0 -1 0 2 2 2 1 2
-0 -0 -0 -0 -1 -1 0 0 0 0 0 0 0 -0 -0 0 0 0 1 -0 -4 -3 1 1 0 0 -1 -5 -8 -3 3 3 6 9 1 1 2 3 2 0 1 2 -0 2 2 -1 -1 0 0 1 2 0 1 1
0 0 -0 0 -0 -0 0 -0 -0 -0 0 0 0 0 0 0 1 1 0 0 2 1 -1 -1 3 1 -1 -1 -3 -6 -12 -4 4 2 6 7 4 2 2 2 2 3 2 1 0 -0 -0 0 -0 0 0 -0 3 2
0 -0 0 -1 -0 0 0 0 -0 -0 -0 0 0 -0 -0 -0 -0 0 -2 -2 0 -1 2 2 -1 -2 2 4 6 6 10 7 3 7 6 1 1 1 2 2 2 1 1 1 1 1 0 -1 -1 1 0 1 2 2
-0 -0 -0 0 -0 -0 -0 -0 -0 -0 0 -0 -0 -0 -0 -0 -1 -0 1 2 -0 0 -2 0 2 2 2 1 1 2 3 3 3 0 13 4 2 1 1 1 1 0 -0 -1 1 3 2 1 0 1 1 1 1 1
Height
1423 1425 1427 1431 1433 1434 1437 1439 1441 1445 1449 1452 1454 1457 1459 1462 1465 1467 1465 1468 1471 1468 1464 1466 1466 1467 1470 1469 1469 1470 1474 1470 1472 1472 1467 1467 1466 1465 1466 1463 1470 1473 1477 1483 1478 1474 1472 1457 1466 1468 1459 1456 1456 1457
1415 1418 1421 1424 1427 1429 1432 1433 1437 1440 1443 1447 1450 1453 1454 1457 1459 1461 1461 1460 1464 1462 1460 1460 1459 1459 1460 1462 1466 1465 1462 1463 1462 1459 1459 1459 1460 1461 1460 1461 1463 1467 1462 1467 1464 1459 1451 1451 1450 1451 1452 1454 1455 1456
1410 1413 1416 1419 1421 1423 1425 1428 1433 1434 1438 1443 1445 1446 1450 1452 1453 1456 1456 1458 1459 1458 1453 1452 1446 1449 1452 1453 1456 1457 1455 1455 1454 1453 1454 1453 1454 1453 1456 1460 1462 1459 1456 1460 1459 1447 1447 1448 1448 1449 1449 1450 1452 1453
1405 1408 1410 1413 1415 1417 1420 1422 1425 1428 1434 1438 1438 1441 1444 1446 1448 1451 1450 1452 1453 1451 1448 1439 1439 1441 1442 1442 1446 1447 1448 1446 1447 1450 1445 1446 1449 1443 1449 1447 1453 1447 1451 1450 1450 1444 1444 1442 1441 1442 1444 1446 1448 1449
1400 1403 1405 1407 1409 1412 1414 1417 1420 1424 1428 1430 1432 1436 1438 1439 1446 1445 1443 1444 1446 1448 1441 1438 1437 1437 1435 1435 1438 1440 1440 1440 1438 1443 1439 1440 1441 1445 1447 1449 1449 1439 1437 1440 1433 1432 1434 1434 1435 1437 1438 1437 1441 1445
1396 1399 1401 1402 1404 1406 1408 1410 1413 1416 1419 1423 1425 1428 1431 1435 1438 1441 1439 1436 1436 1439 1437 1436 1432 1426 1429 1430 1432 1432 1428 1434 1434 1430 1432 1431 1431 1436 1440 1439 1419 1420 1422 1424 1425 1426 1428 1430 1431 1433 1433 1434 1437 1441
1392 1393 1395 1396 1397 1398 1400 1403 1405 1408 1411 1414 1418 1422 1425 1429 1432 1433 1434 1433 1430 1430 1430 1430 1426 1426 1424 1425 1425 1422 1426 1429 1431 1428 1428 1428 1431 1431 1429 1427 1411 1416 1417 1420 1420 1422 1425 1425 1427 1428 1430 1431 1435 1438
1388 1389 1389 1390 1390 1390 1391 1393 1395 1398 1402 1406 1410 1414 1418 1422 1425 1425 1424 1429 1430 1429 1427 1429 1427 1426 1424 1425 1425 1422 1423 1424 1426 1426 1426 1427 1430 1429 1427 1411 1413 1412 1412 1414 1416 1419 1422 1422 1424 1426 1427 1429 1432 1435
1384 1384 1384 1384 1383 1381 1380 1380 1382 1386 1392 1398 1403 1407 1411 1414 1416 1417 1421 1426 1427 1426 1423 1424 1425 1423 1424 1425 1423 1423 1422 1426 1427 1426 1426 1427 1427 1425 1411 1411 1410 1410 1412 1413 1415 1417 1419 1422 1423 1425 1427 1429 1431 1434
1382 1382 1382 1379 1373 1368 1364 1361 1364 1371 1380 1389 1395 1397 1396 1403 1410 1417 1421 1422 1421 1418 1419 1418 1418 1420 1420 1422 1424 1425 1425 1425 1433 1427 1425 1424 1417 1410 1411 1410 1409 1409 1411 1412 1414 1417 1419 1420 1423 1425 1426 1429 1432 1434
1385 1384 1381 1375 1368 1361 1349 1351 1353 1357 1371 1380 1385 1392 1399 1404 1409 1414 1416 1417 1416 1415 1412 1411 1410 1413 1416 1419 1423 1423 1425 1425 1433 1428 1427 1425 1419 1411 1409 1407 1407 1408 1410 1412 1415 1416 1417 1419 1421 1424 1426 1430 1432 1434
1387 1384 1381 1376 1369 1362 1357 1357 1357 1357 1362 1372 1380 1393 1399 1402 1407 1412 1413 1413 1411 1408 1407 1409 1410 1412 1415 1416 1417 1421 1422 1425 1430 1428 1428 1430 1418 1412 1409 1407 1406 1407 1409 1412 1414 1416 1418 1420 1423 1425 1428 1429 1431 1433
1389 1386 1384 1381 1376 1373 1368 1368 1367 1369 1373 1379 1384 1390 1395 1404 1407 1407 1411 1411 1411 1403 1404 1407 1410 1411 1414 1416 1417 1418 1420 1421 1426 1430 1427 1422 1415 1413 1411 1410 1409 1409 1411 1413 1415 1418 1420 1421 1424 1426 1427 1428 1429 1430
1391 1390 1387 1385 1382 1380 1378 1375 1374 1376 1377 1380 1386 1398 1400 1402 1405 1402 1402 1402 1403 1402 1403 1405 1408 1410 1412 1414 1416 1417 1423 1424 1430 1443 1429 1419 1415 1413 1413 1413 1413 1414 1415 1417 1418 1420 1421 1421 1422 1423 1424 1425 1425 1425
1393 1391 1389 1387 1384 1383 1381 1380 1380 1380 1380 1385 1389 1398 1404 1403 1402 1402 1402 1403 1403 1402 1403 1405 1408 1411 1414 1416 1417 1420 1424 1424 1427 1426 1421 1418 1416 1414 1414 1414 1415 1416 1417 1418 1418 1418 1418 1418 1418 1418 1419 1419 1418 1417
1394 1392 1390 1387 1385 1383 1382 1381 1380 1381 1386 1392 1398 1401 1401 1402 1404 1403 1403 1403 1403 1404 1405 1406 1410 1412 1415 1415 1418 1417 1421 1424 1420 1419 1418 1418 1417 1416 1416 1415 1415 1415 1415 1414 1414 1413 1412 1412 1411 1410 1410 1409 1408 1407
1395 1393 1391 1388 1385 1383 1381 1381 1382 1385 1392 1398 1403 1403 1403 1404 1405 1405 1405 1404 1404 1405 1407 1408 1414 1412 1422 1426 1425 1423 1422 1420 1419 1418 1418 1417 1416 1414 1413 1412 1411 1410 1409 1407 1406 1405 1404 1404 1402 1400 1398 1398 1397 1396
1394 1392 1390 1387 1385 1384 1382 1382 1386 1393 1401 1404 1405 1406 1406 1406 1407 1406 1406 1405 1404 1404 1405 1409 1411 1424 1431 1427 1426 1420 1418 1418 1417 1415 1413 1412 1411 1409 1407 1404 1403 1401 1399 1398 1397 1395 1393 1392 1390 1388 1387 1386 1385 1384
1394 1392 1390 1387 1385 1384 1385 1390 1392 1399 1405 1406 1407 1407 1408 1408 1408 1408 1406 1406 1405 1405 1407 1408 1418 1427 1422 1420 1419 1417 1416 1415 1411 1408 1406 1405 1404 1402 1399 1397 1395 1393 1391 1389 1387 1384 1383 1382 1380 1379 1377 1376 1373 1372
1395 1393 1390 1387 1385 1385 1390 1396 1398 1401 1407 1409 1409 1409 1409 1409 1410 1409 1408 1407 1407 1407 1411 1418 1421 1421 1420 1419 1417 1414 1412 1410 1407 1402 1397 1396 1396 1393 1391 1389 1386 1384 1381 1378 1376 1375 1372 1370 1369 1368 1367 1365 1363 1361
1396 1393 1391 1390 1388 1389 1395 1399 1402 1406 1409 1410 1411 1411 1411 1411 1411 1410 1409 1409 1409 1416 1420 1421 1421 1419 1417 1415 1412 1409 1406 1404 1401 1399 1394 1389 1388 1385 1382 1380 1378 1375 1372 1369 1367 1364 1364 1361 1360 1359 1357 1355 1355 1354
1396 1394 1392 1391 1392 1395 1401 1405 1407 1409 1410 1411 1412 1413 1413 1413 1414 1414 1413 1413 1419 1423 1423 1421 1418 1415 1412 1409 1407 1405 1402 1399 1396 1393 1390 1387 1381 1378 1375 1372 1370 1366 1364 1361 1359 1356 1354 1353 1351 1350 1348 1347 1347 1346
1395 1394 1394 1394 1396 1400 1410 1408 1408 1410 1412 1414 1414 1415 1417 1417 1417 1417 1419 1421 1423 1423 1421 1419 1415 1413 1409 1407 1404 1402 1398 1394 1389 1386 1382 1379 1375 1371 1368 1365 1362 1359 1355 1353 1352 1349 1347 1346 1344 1343 1342 1340 1339 1338
1396 1396 1398 1400 1403 1409 1410 1410 1412 1413 1415 1418 1421 1423 1422 1420 1419 1419 1425 1423 1424 1422 1420 1416 1413 1408 1405 1402 1398 1395 1392 1388 1383 1379 1375 1371 1367 1363 1360 1357 1354 1351 1349 1346 1345 1343 1341 1339 1337 1335 1334 1333 1332 1331
1400 1409 1409 1410 1411 1411 1416 1418 1418 1418 1426 1427 1426 1425 1424 1423 1426 1430 1429 1426 1423 1420 1416 1413 1410 1406 1402 1397 1394 1390 1388 1383 1378 1372 1369 1366 1361 1357 1353 1351 1348 1345 1343 1340 1338 1336 1334 1332 1330 1328 1327 1326 1325 1324
1414 1418 1417 1419 1419 1418 1422 1425 1427 1428 1427 1428 1429 1426 1425 1426 1431 1432 1428 1426 1422 1418 1414 1410 1406 1402 1399 1397 1391 1386 1382 1379 1374 1369 1364 1361 1357 1354 1349 1346 1342 1338 1337 1334 1331 1329 1327 1326 1325 1323 1322 1320 1320 1320
1423 1425 1423 1423 1423 1423 1424 1425 1426 1426 1432 1432 1431 1428 1428 1433 1433 1429 1427 1425 1421 1417 1413 1409 1406 1402 1398 1393 1389 1385 1381 1376 1372 1367 1361 1357 1354 1351 1347 1343 1338 1335 1331 1329 1327 1325 1323 1322 1321 1320 1319 1318 1318 1317
1426 1426 1428 1426 1424 1425 1426 1428 1430 1433 1431 1431 1430 1431 1431 1430 1431 1430 1428 1424 1420 1416 1412 1408 1405 1401 1397 1393 1388 1384 1379 1374 1369 1364 1359 1355 1351 1348 1344 1339 1336 1333 1330 1327 1325 1321 1320 1319 1319 1319 1318 1318 1318 1318
1429 1428 1428 1427 1426 1427 1429 1430 1431 1431 1431 1430 1431 1430 1430 1429 1429 1428 1426 1423 1418 1414 1410 1406 1403 1400 1396 1392 1388 1384 1379 1373 1367 1361 1357 1353 1348 1345 1341 1337 1333 1330 1329 1327 1325 1323 1321 1321 1320 1320 1320 1321 1321 1321
1431 1430 1429 1429 1429 1432 1432 1431 1431 1431 1431 1431 1431 1430 1429 1429 1429 1428 1426 1422 1417 1414 1410 1407 1403 1399 1394 1390 1386 1383 1380 1375 1370 1367 1361 1356 1351 1347 1342 1337 1333 1330 1329 1328 1328 1327 1326 1325 1325 1324 1324 1324 1324 1325
1432 1431 1431 1430 1431 1432 1432 1432 1431 1431 1431 1431 1431 1430 1430 1429 1429 1428 1426 1422 1418 1414 1410 1406 1403 1400 1395 1391 1387 1383 1378 1376 1373 1369 1365 1360 1355 1349 1345 1340 1336 1333 1331 1330 1329 1329 1329 1328 1328 1328 1329 1329 1330 1331
1433 1433 1433 1433 1433 1433 1432 1432 1431 1431 1431 1431 1430 1430 1430 1429 1429 1428 1426 1422 1418 1414 1411 1407 1403 1400 1398 1394 1391 1387 1384 1381 1377 1372 1368 1363 1359 1354 1350 1346 1342 1338 1336 1334 1334 1333 1333 1333 1334 1334 1335 1336 1337 1338
1434 1434 1433 1433 1432 1432 1432 1432 1431 1431 1431 1430 1430 1430 1429 1430 1429 1430 1427 1424 1420 1416 1412 1409 1406 1403 1400 1396 1393 1389 1386 1383 1380 1377 1375 1370 1365 1361 1358 1354 1350 1347 1345 1342 1342 1341 1341 1341 1341 1342 1343 1344 1346 1347